ORBCOMM FM12 [-]

Last updated on Thu Dec 28 2023 00:02:54 GMT+0000 (Coordinated Universal Time)

1 25115U 97084D 23361.27412601 .00002418 00000+0 78042-3 0 9998 2 25115 45.0156 62.7967 0003718 2.9924 357.0947 14.41552295363554

Satellite not in orbit

ORBCOMM FM12 [-]